Weather Roundup
Issued by NWS Chicago, IL

Home | Current Version | Previous Version | Text Only | Print | Product List | Glossary Off
Versions: 1 2 3 4 5 6 7 8 9 10 11 12 13 14 15 16 17 18 19 20 21 22 23 24 25 26 27 28 29 30 31 32 33 34 35 36 37 38 39 40 41 42 43 44 45 46 47 48 49 50

000
NZUS59 KLOT 211403
HRRLOT

CHICAGO AREA WEATHER ROUNDUP
NATIONAL WEATHER SERVICE CHICAGO/ROMEOVILLE IL
900 AM CDT SAT APR 21 2018

NOTE: "FAIR" INDICATES FEW OR NO CLOUDS BELOW 12,000 FEET WITH NO
SIGNIFICANT WEATHER AND/OR OBSTRUCTIONS TO VISIBILITY.

* THESE STATIONS ARE NOT UNDER NWS QUALITY CONTROL. THEY ALSO MAY NOT
  REPORT WEATHER SUCH AS PRECIPITATION OR FOG.

ILZ005-006-012>014-019>023-211500-
NORTHEAST ILLINOIS

CITY           SKY/WX    TMP DP  RH WIND       PRES   REMARKS
OHARE          CLOUDY    47  18  31 CALM      30.45R
MIDWAY         CLOUDY    48  22  35 CALM      30.46R
AURORA         CLOUDY    44  31  60 CALM      30.45S
LANSING*       CLOUDY    44  27  51 CALM      30.46R
JOLIET*        CLOUDY    47  27  44 CALM      30.46R
WAUKEGAN       CLOUDY    42  26  53 NE5       30.45S
DUPAGE AIRPORT CLOUDY    46  23  40 CALM      30.45S
WHEELING       CLOUDY    45  23  42 CALM      30.47S
KANKAKEE*      CLOUDY    44  26  48 E3        30.45S
MORRIS*        CLOUDY    44  29  56 CALM      30.46R
LEWIS AIRPORT* CLOUDY    45  26  47 CALM      30.45S
NORTHERLY ISL    N/A     42  31  65 N3          N/A
$$

WIZ051-052-058>065-066-070>072-211500-
SOUTHEAST WISCONSIN

CITY           SKY/WX    TMP DP  RH WIND       PRES   REMARKS
MILWAUKEE      CLOUDY    44  22  41 CALM      30.47S
KENOSHA*         N/A     42  23  46 NE3       30.46S
RACINE*          N/A     44  26  49 CALM      30.47F
BURLINGTON       N/A     39  29  67 CALM      30.45S
WAUKESHA       PTSUNNY   37  25  60 NE3       30.47S
WEST BEND        N/A     39  28  65 CALM      30.46S
$$

INZ001>003-010>013-019-020-211500-
NORTHWEST INDIANA

CITY           SKY/WX    TMP DP  RH WIND       PRES   REMARKS
GARY*          CLOUDY    46  18  31 CALM      30.46R
MICHIGAN CITY* NOT AVBL
RENSSELAER*    NOT AVBL
VALPARAISO     CLOUDY    46  27  47 CALM      30.45S
$$

LMZ740>746-211500-
SOUTHERN LAKE MICHIGAN

STATION/POSITION TIME  SKY/WX   TEMP WIND        PRES    VSBY
                                AIR  DIR/SP/G
                 (UTC)          (F)  (DEG/KT/KT) (MB)    (MI)
HARRISON CRIB    1340            39  350/  5/  6   N/A
BURNHAM HARBOR   1400            41   10/  5       N/A
CALUMET HARBOR   1330            41   CALM  /  2 1030.6R
BURNS HARBOR     1340            45   CALM  /  2 1031.5R
MICHIGAN CITY    1340            40   10/  3/  4   N/A
$$

ABBREVIATIONS USED IN REMARKS
   TC - TEMPERATURE IN CELSIUS
  WCI - WIND CHILL INDEX
   HX - HEAT INDEX
  VSB - VISIBILITY
$$




USA.gov is the U.S. government's official web portal to all federal, state and local government web resources and services.